[[{"header":{"parameterUnit":"m.s-1","parameterCategory":1,"la1":30.2991,"la2":30.254,"lo1":-89.0895,"lo2":-89.0444,"dy":0.0017,"dx":0.0017,"nx":28,"ny":28,"refTime":"2025-06-07T09:00:00:Z","depth":0,"parameterNumber":2,"parameterNumberName":"U-component_of_WINDS"},"data":[0,0,0,0,0,0,0,0,0,0,0,0,0,0,0,0,0,0,0,0,0,0,0,0,0,0,0,0,0,0,0,0,0,0,0,0,0,0,0,0,0,0,0,0,0,0,0,0,0,0,0,0,0,0,0,0,0,0,5.4486,5.4487,0,5.4578,5.4579,5.458,5.4512,5.4509,5.4506,5.4503,5.4603,5.4608,5.4614,0,0,0,0,0,0,0,0,0,0,0,0,0,5.4252,5.4257,5.4485,5.4487,5.4488,5.4578,5.4579,5.4581,5.4513,5.4509,5.4506,5.4502,5.4601,5.4608,5.4614,0,0,0,0,0,0,0,0,0,0,0,0,0,5.435,5.4259,5.4485,5.4465,5.4464,5.4578,5.458,5.4581,5.4514,5.4509,5.4505,5.45,5.4599,5.4607,5.4615,5.4756,0,0,5.464,5.4644,0,0,0,0,0,0,0,0,5.4345,5.4359,5.4467,5.4466,5.4465,5.4529,5.4534,5.464,5.4515,5.4495,5.4503,5.4498,5.4582,5.4592,5.4619,5.4761,5.4765,5.4641,5.4646,5.4649,5.4652,0,0,0,0,0,0,0,5.4338,5.4355,5.4522,5.4468,5.4468,5.4452,5.4461,5.4553,5.4563,5.4496,5.4491,5.4503,5.4581,5.4611,5.4621,5.4766,5.4641,5.4648,5.4653,5.4656,5.5027,5.5031,0,0,0,0,0,0,5.4333,5.4349,5.4519,5.4525,5.4393,5.446,5.447,5.4513,5.4562,5.4565,5.4507,5.45,5.46,5.4611,5.4624,5.4791,5.4649,5.4657,5.4662,5.5022,5.5028,5.5033,0,0,0,0,0,0,5.4328,5.4349,5.4516,5.4436,5.4456,5.4468,5.4518,5.4518,5.4547,5.457,5.4571,5.4536,5.4596,5.4613,5.4723,5.4793,5.4661,5.4668,5.5016,5.5024,5.503,5.5127,0,0,0,0,0,0,5.4322,5.4347,5.44,5.4438,5.4461,5.4612,5.4522,5.4523,5.4561,5.4553,5.4597,5.46,5.4594,5.4711,5.4731,5.4802,5.4674,5.501,5.5019,5.5028,5.5117,5.5136,5.5153,0,0,0,0,0,5.4314,5.4425,5.4403,5.4424,5.4527,5.4616,5.463,5.4619,5.4567,5.4621,5.4635,5.4599,5.4783,5.4723,5.4745,5.482,5.5005,5.5017,5.5027,5.5109,5.5133,5.5152,0,0,0,0,0,0,5.4398,5.443,5.4406,5.4533,5.4572,5.4605,5.4672,5.4644,5.4701,5.469,5.4676,5.4687,5.4802,5.4822,5.4755,5.4958,5.4886,5.4902,5.4941,5.4963,5.4981,5.4973,5.4681,0,0,0,0,0,5.443,5.4499,5.4524,5.4634,5.4654,5.466,5.4699,5.4687,5.4728,5.4745,5.4767,5.4809,5.4876,5.4921,5.4984,5.512,5.5128,5.5182,5.52,5.5215,5.5228,5.5301,5.5325,5.507,5.507,5.5069,0,0,5.45,5.4526,5.4571,5.4651,5.468,5.4753,5.4675,5.4755,5.4809,5.4757,5.4862,5.488,5.4926,5.505,5.5105,5.507,5.5301,5.5229,5.524,5.5246,5.5315,5.5339,5.536,5.5077,5.5076,5.5075,0,0,5.4663,5.469,5.4783,5.4813,5.4858,5.486,5.4883,5.492,5.4929,5.5034,5.4996,5.5061,5.5177,5.5211,5.5243,5.5418,5.5387,5.5439,5.5532,5.5603,5.5623,5.5641,5.5702,5.5724,5.5453,5.5453,5.5454,0,5.4744,5.485,5.4835,5.4917,5.4953,5.4909,5.5003,5.5034,5.5098,5.5124,5.5083,5.5227,5.5255,5.5385,5.5427,5.5456,5.5481,5.5434,5.5621,5.5639,5.5655,5.5714,5.5737,5.5459,5.5459,5.5458,5.5458,0,5.4947,5.5021,5.5091,5.5151,5.5196,5.5284,5.5283,5.533,5.5314,5.5322,5.5429,5.5461,5.5529,5.5559,5.5545,5.5687,5.5664,5.5623,5.555,5.5686,5.574,5.5763,5.5468,5.5466,5.5464,5.5463,0,0,5.5166,5.5215,5.5241,5.5267,5.5312,5.537,5.5457,5.5521,5.5561,5.5607,5.5679,5.5778,5.5739,5.5776,5.5766,5.5828,5.5963,5.5779,5.578,5.5811,5.6121,5.615,5.6177,5.5943,5.5947,5.595,5.6116,0,5.533,5.5478,5.5466,5.5607,5.5675,5.5633,5.5708,5.5745,5.5754,5.5814,5.5824,5.5894,5.5838,5.586,5.592,5.5934,5.6025,5.5922,5.601,5.6013,5.5999,5.6205,5.6238,5.6393,5.6138,5.6141,5.6144,0,5.5541,5.5592,5.5739,5.5772,5.58,5.5868,5.5925,5.5983,5.6024,5.6026,5.6067,5.6046,5.6133,5.6059,5.6179,5.6109,5.6145,5.6157,5.6163,5.617,5.6086,5.6217,5.6442,5.6465,5.6178,5.6175,5.6172,0,5.5685,5.579,5.5891,5.5915,5.5957,5.6005,5.6025,5.6061,5.61,5.6151,5.6176,5.6238,5.6272,5.632,5.6317,5.6263,5.6439,5.6364,5.6443,5.6444,5.6482,5.648,5.6714,5.6507,5.6506,5.6506,5.6505,0,5.5869,5.5961,5.5955,5.6017,5.6118,5.6104,5.6205,5.622,5.6252,5.6317,5.6285,5.6347,5.6338,5.6401,5.6399,5.6498,5.6514,5.6519,5.6517,5.6521,5.6521,5.6544,5.6533,5.6512,5.6511,5.6509,5.6508,0,5.6047,5.6047,5.6154,5.6184,5.6194,5.6267,5.6293,5.6352,5.6358,5.644,5.6459,5.6469,5.654,5.6541,5.6624,5.6623,5.6744,5.6731,5.673,5.6727,5.6805,5.6798,5.7063,5.7097,5.6868,5.687,5.6872,0,5.6164,5.6232,5.6269,5.6309,5.6332,5.6397,5.6437,5.6426,5.6468,5.6519,5.6572,5.664,5.6693,5.681,5.6825,5.6888,5.6875,5.6964,5.6885,5.6886,5.6875,5.6871,5.6877,5.6979,5.6982,5.6984,5.6986,0,5.6371,5.6368,5.6424,5.6482,5.6529,5.6574,5.6615,5.665,5.6644,5.6693,5.6765,5.6806,5.6889,5.6957,5.7018,5.7039,5.7012,5.701,5.7032,5.7036,5.7032,5.7034,5.6771,5.7004,5.7002,5.7001,5.7,5.6999,5.6522,5.658,5.6615,5.6679,5.6708,5.6747,5.6804,5.6816,5.6875,5.694,5.693,5.701,5.7048,5.7126,5.7153,5.7216,5.7185,5.7217,5.7224,5.7232,5.724,5.7023,5.7227,5.7226,5.7226,5.7226,5.7225,0,5.6727,5.6746,5.6805,5.6863,5.6914,5.6881,5.6925,5.697,5.704,5.7077,5.713,5.7211,5.7277,5.7297,5.736,5.7407,5.7396,5.7424,5.742,5.7425,5.7264,5.7239,5.7431,5.7431,5.7431,5.7431,5.7431,5.7431,5.6839,5.6936,5.6936,5.7047,5.7067,5.7143,5.717,5.7206,5.7235,5.7328,5.7381,5.7393,5.7423,5.7488,5.7547,5.7551,5.7576,5.7609,5.7608,5.7457,5.7437,5.7417,5.7393,5.7615,5.7615,5.7763,5.7765,5.7766]},{"header":{"parameterUnit":"m.s-1","parameterCategory":1,"la1":30.2991,"la2":30.254,"lo1":-89.0895,"lo2":-89.0444,"dy":0.0017,"dx":0.0017,"nx":28,"ny":28,"refTime":"2025-06-07T09:00:00:Z","depth":0,"parameterNumber":3,"parameterNumberName":"V-component_of_WINDS"},"data":[0,0,0,0,0,0,0,0,0,0,0,0,0,0,0,0,0,0,0,0,0,0,0,0,0,0,0,0,0,0,0,0,0,0,0,0,0,0,0,0,0,0,0,0,0,0,0,0,0,0,0,0,0,0,0,0,0,0,1.4982,1.4982,0,1.4996,1.4996,1.4996,1.4976,1.4975,1.4974,1.4974,1.4988,1.4989,1.499,0,0,0,0,0,0,0,0,0,0,0,0,0,1.4938,1.4939,1.4982,1.4982,1.4982,1.4996,1.4996,1.4996,1.4976,1.4975,1.4974,1.4973,1.4987,1.4989,1.499,0,0,0,0,0,0,0,0,0,0,0,0,0,1.4955,1.4939,1.4982,1.4974,1.4973,1.4996,1.4996,1.4996,1.4976,1.4975,1.4974,1.4973,1.4987,1.4988,1.499,1.5021,0,0,1.4995,1.4995,0,0,0,0,0,0,0,0,1.4954,1.4956,1.4975,1.4975,1.4974,1.4983,1.4985,1.5005,1.4976,1.4975,1.4974,1.4972,1.4987,1.4989,1.4993,1.5022,1.5022,1.4995,1.4996,1.4997,1.4997,0,0,0,0,0,0,0,1.4953,1.4956,1.4988,1.4975,1.4975,1.4969,1.4971,1.4989,1.4987,1.4975,1.4974,1.4976,1.4987,1.4992,1.4994,1.5023,1.4995,1.4996,1.4997,1.4998,1.5077,1.5078,0,0,0,0,0,0,1.4952,1.4955,1.4987,1.4988,1.4961,1.4971,1.4972,1.4981,1.4987,1.4986,1.4976,1.4975,1.499,1.4992,1.4994,1.5031,1.4997,1.4998,1.4999,1.5076,1.5077,1.5078,0,0,0,0,0,0,1.4952,1.4956,1.4987,1.4971,1.4975,1.4973,1.4983,1.4982,1.4987,1.4988,1.4987,1.4983,1.4989,1.4992,1.5014,1.5031,1.4999,1.5,1.5074,1.5076,1.5078,1.5105,0,0,0,0,0,0,1.495,1.4955,1.4967,1.4971,1.4975,1.5007,1.4984,1.4983,1.499,1.4988,1.4993,1.4993,1.4988,1.5012,1.5016,1.5033,1.5001,1.5073,1.5075,1.5077,1.5102,1.5107,1.5111,0,0,0,0,0,1.4949,1.4974,1.4968,1.4972,1.499,1.5008,1.501,1.5005,1.4992,1.5004,1.5004,1.4993,1.5028,1.5015,1.5019,1.5036,1.5072,1.5074,1.5077,1.51,1.5106,1.5111,0,0,0,0,0,0,1.4972,1.4975,1.4968,1.4995,1.5002,1.5005,1.5019,1.5011,1.5021,1.5018,1.5011,1.5012,1.5036,1.5038,1.5023,1.5066,1.5048,1.5052,1.5064,1.507,1.5074,1.5073,1.5003,0,0,0,0,0,1.4981,1.4995,1.4996,1.502,1.5024,1.5021,1.5029,1.5024,1.503,1.5032,1.5034,1.504,1.5053,1.5061,1.5073,1.5102,1.5103,1.5116,1.5121,1.5124,1.5128,1.5143,1.5149,1.5087,1.5087,1.5087,0,0,1.4998,1.5001,1.5011,1.5025,1.5029,1.5044,1.5024,1.504,1.5051,1.5035,1.5056,1.5058,1.5064,1.509,1.5102,1.5093,1.5145,1.5128,1.513,1.5132,1.5146,1.5152,1.5158,1.5089,1.5088,1.5088,0,0,1.5038,1.5041,1.5062,1.5066,1.5073,1.5071,1.5076,1.508,1.5081,1.5102,1.509,1.5103,1.5125,1.513,1.5135,1.5176,1.5167,1.518,1.5204,1.5219,1.5224,1.5228,1.5243,1.5248,1.5183,1.5183,1.5183,0,1.5058,1.508,1.5073,1.5091,1.5098,1.5083,1.5104,1.5109,1.5119,1.5124,1.5113,1.514,1.5144,1.5171,1.5181,1.5186,1.5191,1.518,1.5224,1.5228,1.5232,1.5246,1.5251,1.5185,1.5185,1.5185,1.5184,0,1.5106,1.5121,1.5137,1.5147,1.5155,1.5174,1.517,1.5179,1.5174,1.5173,1.5195,1.5198,1.521,1.5216,1.521,1.5242,1.5236,1.5225,1.5206,1.524,1.5253,1.5258,1.5187,1.5187,1.5186,1.5186,0,0,1.5161,1.5167,1.5173,1.5177,1.5183,1.5195,1.5213,1.5225,1.5233,1.524,1.5255,1.5274,1.5263,1.5269,1.5264,1.5278,1.531,1.5264,1.5264,1.5273,1.5345,1.5354,1.5361,1.5303,1.5304,1.5305,1.5345,0,1.52,1.5232,1.5226,1.5257,1.5271,1.5257,1.5273,1.5279,1.5278,1.529,1.5289,1.5302,1.5287,1.5291,1.5303,1.5303,1.5324,1.53,1.5317,1.5318,1.5317,1.5367,1.5377,1.5414,1.535,1.5351,1.5351,0,1.5251,1.526,1.5292,1.5296,1.5302,1.5316,1.5326,1.5337,1.5343,1.5342,1.5349,1.5341,1.5359,1.534,1.5364,1.5348,1.5354,1.5355,1.5357,1.5358,1.5337,1.5371,1.5426,1.5432,1.5359,1.5359,1.5358,0,1.5288,1.5308,1.533,1.5334,1.5339,1.535,1.5352,1.5357,1.5364,1.5373,1.5378,1.5388,1.5394,1.5403,1.5398,1.5384,1.5423,1.5404,1.5423,1.5423,1.5432,1.5432,1.5489,1.5436,1.5436,1.5435,1.5435,0,1.5333,1.5353,1.5347,1.536,1.5383,1.5376,1.5398,1.5399,1.5403,1.5416,1.5405,1.5418,1.541,1.5422,1.5419,1.544,1.5442,1.5442,1.5441,1.5443,1.5443,1.5447,1.5445,1.5437,1.5437,1.5436,1.5436,0,1.5378,1.5375,1.5398,1.5401,1.5402,1.5418,1.542,1.5433,1.5431,1.5448,1.5452,1.5449,1.5463,1.5459,1.5474,1.5471,1.5498,1.5493,1.5496,1.5495,1.5514,1.5512,1.5577,1.5585,1.5526,1.5527,1.5527,0,1.5407,1.5423,1.5427,1.5435,1.5438,1.5452,1.5459,1.5452,1.5461,1.5468,1.548,1.5492,1.5502,1.5525,1.5524,1.5535,1.5531,1.5553,1.5533,1.5534,1.5532,1.5531,1.5532,1.5557,1.5558,1.5558,1.5559,0,1.5459,1.5457,1.5468,1.5479,1.5488,1.5496,1.5503,1.551,1.5504,1.5514,1.5528,1.5535,1.555,1.5563,1.5573,1.5575,1.5566,1.5565,1.557,1.5573,1.5574,1.5574,1.5507,1.5564,1.5563,1.5563,1.5562,1.5562,1.5497,1.551,1.5515,1.5528,1.5533,1.554,1.5552,1.5551,1.5563,1.5575,1.557,1.5586,1.5591,1.5604,1.5607,1.5619,1.5611,1.5618,1.562,1.5622,1.5625,1.5572,1.5621,1.5621,1.5621,1.5621,1.5621,0,1.5549,1.5551,1.5563,1.5573,1.5584,1.5574,1.5581,1.559,1.5604,1.561,1.562,1.5636,1.5648,1.5648,1.5659,1.5669,1.5665,1.5672,1.5672,1.5672,1.5631,1.5626,1.5675,1.5675,1.5675,1.5675,1.5675,1.5675,1.5577,1.5598,1.5596,1.562,1.5622,1.5638,1.5643,1.5649,1.5653,1.5672,1.5682,1.5682,1.5685,1.5697,1.5707,1.5707,1.5712,1.5721,1.5719,1.5681,1.5675,1.567,1.5665,1.5722,1.5722,1.5759,1.5759,1.576]}]]